Tracking 18624 objects as of 30-April-2017
HD Live streaming from Space Station
objects crossing your sky now

AENEAS

Track AENEAS now!
10-day predictions
AENEAS is classified as:


NORAD ID: 38760
Int'l Code: 2012-048C
Perigee: 486.3 km
Apogee: 643.5 km
Inclination: 64.7 °
Period: 95.8 minutes
Semi major axis: 6935 km
RCS: Unknown
Launch date: September 13, 2012
Source: United States (US)
Launch site: AIR FORCE WESTERN TEST RANGE (AFWTR)
Uplink (MHz):
Downlink (MHz): 437.600
Beacon (MHz): 437.600
Mode: 1200bps AFSK
Call sign: KE6YFA-1
Status: Active

Your satellite tracking list
Your tracking list is empty





NASA's NSSDC Master Catalog

Two Line Element Set (TLE):
1 38760U 12048C   17118.34349397 +.00003727 +00000-0 +25275-3 0 04649
2 38760 064.6611 166.6571 0113308 132.3362 228.7311 15.02973268070990
Source of the keplerian elements: Caltech